Location: Detroit
(42.3310°N, 83.0460°W)
Time: 10:49:49
(UTC-04:00)

Explorer 7 - Pass Details

Date: 02 March 2024
Orbit: 462 x 610 km, 50.3° (Epoch: 09 September)

Event Time Altitude Azimuth Distance (km) Brightness Sun altitude
Exits shadow 05:32:54 18° 195° (SSW) 1,206 8.3 -17.8°
Maximum altitude 05:35:03 34° 139° (SE) 786 7.9 -17.4°
Drops below altitude 10° 05:38:20 10° 74° (ENE) 1,613 10.5 -16.8°
Sets 05:40:37 0° 64° (ENE) 2,502 11.6 -16.4°
